Location: Borz?cin
(51.1714°N, 19.6030°E)
Time: 21:30:51
(UTC+00:00)

NOSS 3-1 (A) - Pass Details

Date: 19 May 2025
Orbit: 667 x 1541 km, 63.4° (Epoch: 12 June)

Event Time Altitude Azimuth Distance (km) Brightness Sun altitude
Rises 22:38:25 0° 253° (WSW) 3,155 6.0 -18.8°
Reaches altitude 10° 22:40:44 10° 261° (W) 2,312 5.4 -18.8°
Maximum altitude 22:45:45 42° 332° (NNW) 1,234 4.5 -18.8°
Drops below altitude 10° 22:51:50 10° 43° (NE) 2,809 6.6 -18.8°
Sets 22:54:55 0° 50° (NE) 3,915 7.3 -18.8°
